Location: Unspecified
(43.4680°N, 87.1740°E)
Time: 20:51:17
(UTC+00:00)

Cosmos 1825 - Pass Details

Date: 17 April 2021
Orbit: 502 x 505 km, 82.5° (Epoch: 11 May)

Event Time Altitude Azimuth Distance (km) Brightness Sun altitude
Rises 14:03:01 0° 359° (N) 2,615 6.2 -12.0°
Reaches altitude 10° 14:05:16 10° 8° (N) 1,726 5.1 -12.4°
Maximum altitude 14:08:48 38° 77° (ENE) 792 2.7 -12.9°
Enters shadow 14:10:45 22° 132° (SE) 1,153 3.4 -13.2°
